Theta_e
318 318 316 318 321 321 323 325 323 321 321 316 316 317 318 321 320 319 319 318 319 320 320 318 320 323 323 322 323 322 322 325 325 323 330 337 339 339 338 338 337 335 335 335 335 335 335 334 334 334 333 334 333 331 331 331 330 329 326 325 323 322 323 323 324 327 326 321 315 314 313 310 309 308 307 308 308 309 309 311 310 312 319 322 325 328 328 328 330 325 314 309 308 307 307 307 307
319 318 316 319 321 322 325 323 321 319 317 315 315 319 319 319 319 319 319 319 321 320 319 318 320 323 322 322 321 321 325 326 326 329 335 337 339 340 337 338 337 335 336 336 334 335 335 335 335 334 334 335 332 327 327 329 328 325 323 323 322 318 320 325 325 327 325 321 317 314 312 311 310 308 307 307 308 308 309 309 308 315 321 323 327 329 327 328 329 323 310 306 307 307 308 307 308
318 318 316 320 322 323 325 323 320 316 314 314 315 320 319 319 319 319 321 321 322 320 319 319 320 323 321 322 321 321 327 327 328 333 336 338 339 339 337 337 338 336 336 336 336 335 336 335 334 334 333 334 332 326 324 325 324 323 322 322 321 317 320 326 327 326 324 321 320 316 315 313 312 310 307 306 307 308 308 308 310 319 323 324 329 329 328 329 327 319 308 307 308 307 308 308 308
318 317 316 322 326 323 324 323 320 316 314 314 314 319 319 319 319 320 322 322 321 320 320 320 321 323 321 324 322 321 329 329 331 335 337 338 338 337 337 337 338 337 334 335 336 335 335 335 334 334 333 333 333 330 326 324 323 322 322 322 320 317 322 327 327 325 322 321 322 319 318 316 314 312 309 306 305 306 306 306 308 319 323 323 327 327 325 323 318 312 310 311 309 308 308 307 308
318 317 316 322 327 324 323 322 319 317 315 315 316 318 319 320 319 321 322 320 319 320 320 320 322 323 320 323 322 324 330 328 331 336 337 338 338 336 336 336 338 337 335 335 335 335 335 335 334 334 333 333 333 332 330 327 325 323 322 322 319 317 324 328 326 323 321 322 322 321 321 319 317 315 313 309 306 305 305 306 307 317 323 322 324 326 321 315 314 315 317 316 309 307 308 308 308
318 318 317 321 325 323 322 320 317 317 318 319 318 318 319 319 320 321 321 320 319 319 319 320 322 321 321 323 323 326 329 328 331 335 337 338 337 336 334 335 337 336 337 337 335 336 336 334 334 333 333 333 333 333 331 328 325 324 323 320 318 320 325 328 326 323 322 322 321 321 322 321 320 317 315 312 309 305 305 306 309 318 323 322 324 326 322 316 318 318 316 313 308 307 307 308 308
319 323 322 321 323 323 322 319 317 318 319 320 319 318 319 319 321 321 320 320 319 318 318 319 319 320 323 322 322 323 326 329 331 334 336 336 336 336 335 335 337 336 337 338 336 337 336 334 333 333 333 333 333 333 331 327 325 324 322 319 319 322 325 328 327 326 324 322 320 320 320 320 320 318 316 314 312 308 306 306 310 319 321 319 320 322 322 321 318 313 309 307 306 307 307 307 307
319 324 323 323 323 322 322 319 319 320 319 319 319 319 319 320 320 320 320 319 319 318 318 318 318 320 321 321 325 324 323 326 330 332 332 333 335 335 336 337 337 338 338 338 337 337 335 334 334 333 333 333 332 333 331 326 325 323 321 320 320 322 325 328 329 328 325 321 320 320 319 318 318 317 316 315 314 310 308 305 308 318 320 317 319 320 321 319 314 308 306 306 306 306 306 306 306
319 322 323 323 323 321 320 319 319 319 319 318 318 319 319 319 319 320 319 319 319 318 319 318 319 320 319 321 325 325 322 322 325 328 329 333 335 335 337 338 338 338 338 338 337 336 335 335 335 334 333 333 333 333 331 327 325 323 322 321 320 322 325 328 329 328 324 321 320 321 319 317 317 317 316 315 314 311 309 306 306 314 316 314 316 318 317 312 308 306 306 306 305 305 305 305 305
320 321 323 323 321 319 317 318 319 320 319 319 319 318 318 318 319 320 319 320 318 318 320 319 319 318 318 321 323 324 323 319 322 326 329 334 335 335 337 338 338 338 338 338 337 336 335 336 335 334 333 333 333 333 331 328 326 324 323 322 321 322 324 327 327 326 323 321 321 322 321 319 318 317 317 316 314 312 309 306 305 307 308 307 309 309 309 307 305 305 305 305 304 305 305 305 305
323 321 322 322 319 317 316 318 319 320 319 318 318 318 318 318 318 319 319 319 318 319 320 318 318 318 318 320 323 324 321 318 322 325 328 332 335 336 337 338 338 338 338 338 337 336 336 335 335 335 334 334 333 333 331 329 327 325 324 323 322 321 323 325 326 327 324 323 323 323 323 321 320 318 318 317 314 312 308 306 304 304 304 304 305 305 305 305 304 304 305 306 307 309 310 311 310
324 321 321 320 319 318 318 318 318 320 319 318 318 318 318 318 318 318 318 317 317 318 319 318 318 319 318 319 323 321 316 317 321 323 327 330 334 335 336 338 337 337 337 337 337 337 337 336 336 336 335 334 334 333 332 331 329 327 325 324 323 322 323 324 326 327 326 324 324 324 324 323 321 320 319 318 314 312 309 305 304 303 304 304 304 304 304 304 305 307 309 312 314 315 316 316 315
324 323 321 319 321 320 319 319 319 320 319 319 318 318 318 318 318 317 317 317 318 318 318 319 318 318 318 320 322 319 317 317 317 319 323 327 333 334 336 338 336 337 336 336 337 336 337 337 336 336 335 335 334 333 332 332 330 329 327 325 324 324 323 324 327 327 326 325 324 323 323 325 323 321 320 319 315 312 310 306 305 304 304 304 305 306 307 308 310 313 315 317 317 318 318 317 317
324 324 322 321 322 321 319 319 319 318 317 319 318 317 317 318 318 317 317 317 317 318 318 318 317 319 318 320 320 319 320 317 314 317 318 323 330 332 335 337 335 336 336 336 337 336 336 337 336 336 335 335 335 334 333 332 331 330 329 327 325 325 325 325 327 328 327 326 323 322 322 324 324 323 321 320 317 313 312 310 308 307 308 309 311 312 313 315 316 317 318 318 319 319 318 318 317
322 323 322 321 320 320 319 319 319 318 317 319 317 317 317 317 316 317 317 317 318 317 317 317 316 318 318 319 320 322 321 316 314 316 315 319 326 332 336 336 335 335 335 336 336 337 336 337 337 336 336 336 335 334 333 333 332 331 330 329 327 326 326 326 327 328 327 324 322 322 321 322 323 324 323 321 319 315 314 314 313 313 314 315 316 317 317 318 318 319 319 319 319 319 319 318 317
320 323 321 320 318 318 319 320 319 318 318 318 317 317 317 316 316 316 317 316 317 316 316 316 316 317 317 318 321 323 320 315 315 315 316 315 321 332 336 336 335 334 334 335 335 336 336 336 336 336 336 335 335 335 334 334 332 332 331 330 329 327 326 326 327 328 327 324 323 322 322 321 322 324 325 323 321 318 316 317 317 317 317 319 319 319 319 319 319 320 320 320 320 320 319 319 318
319 323 321 318 318 319 320 320 319 318 319 318 316 316 317 317 315 315 316 315 316 316 316 316 316 316 317 316 317 319 317 314 314 314 316 315 318 329 334 335 335 334 333 334 334 335 335 335 335 335 336 335 336 335 335 335 333 332 332 331 330 329 328 327 327 328 327 325 324 323 323 323 321 323 325 325 322 320 319 319 320 320 320 321 321 321 320 319 319 320 320 320 320 320 320 319 318
320 321 319 318 319 320 320 320 319 319 319 318 316 317 317 317 316 315 315 315 316 316 316 316 316 315 316 316 315 316 315 314 314 314 315 317 319 324 329 331 333 332 329 331 331 331 332 332 334 335 335 334 334 335 335 335 335 333 332 332 331 331 330 327 327 328 327 326 324 325 327 325 323 322 324 325 324 323 321 320 321 321 322 322 322 322 321 320 320 320 321 321 320 320 320 320 318
321 322 319 319 321 320 320 320 320 319 319 319 317 317 317 317 317 316 315 317 317 316 317 316 316 316 316 315 316 315 315 314 313 314 314 316 317 318 323 325 328 329 326 328 328 327 329 329 332 334 335 334 334 334 334 335 335 333 332 333 332 332 331 329 329 328 328 328 326 326 329 328 326 323 323 325 325 324 322 321 322 322 323 323 323 322 321 321 320 321 321 321 320 320 320 320 319
321 321 319 320 321 320 319 319 319 318 318 319 318 317 317 317 317 316 316 317 318 317 318 318 317 317 317 315 316 315 315 315 314 314 314 314 315 315 319 320 321 323 324 326 327 325 326 328 330 333 335 335 334 334 333 334 335 334 332 332 332 333 332 331 330 329 329 328 328 329 330 329 327 325 323 325 326 325 323 322 322 323 323 323 323 323 322 322 321 321 321 321 321 320 320 320 319
320 319 319 319 320 320 318 318 317 316 316 318 318 317 317 317 317 317 317 317 318 318 318 318 318 318 318 316 316 316 315 315 315 314 314 314 314 314 316 318 317 320 325 325 325 325 325 328 328 331 334 334 334 333 332 333 334 334 332 331 332 332 332 332 332 331 330 329 329 330 330 329 329 326 325 325 325 326 325 323 323 323 323 324 324 324 323 323 322 322 321 321 321 320 320 320 319
318 318 318 318 318 319 317 316 316 315 316 317 318 317 317 317 316 316 317 317 317 319 318 318 318 318 318 317 316 316 315 315 315 314 315 314 314 314 315 318 317 319 324 322 321 323 324 327 327 330 333 331 330 331 331 333 333 333 333 331 332 332 331 332 332 332 331 330 329 330 330 329 329 327 326 326 326 326 326 323 323 323 324 324 324 324 324 324 323 323 322 322 321 320 320 319 318
317 318 318 317 318 318 317 316 315 315 316 318 318 317 317 317 317 317 317 317 318 318 318 318 317 317 317 317 316 316 316 316 316 315 315 314 314 314 314 317 316 316 318 317 319 321 321 323 326 328 329 327 327 328 329 330 332 332 332 332 331 332 331 331 332 332 331 331 330 330 330 329 330 328 327 326 326 326 326 325 323 324 324 324 324 325 324 324 324 323 323 322 320 319 319 318 318
317 318 318 316 316 317 316 315 315 314 316 317 316 316 317 317 317 317 317 317 318 317 317 317 316 317 316 316 316 316 316 316 316 316 315 315 315 315 316 316 316 315 315 315 317 319 319 318 320 322 323 325 326 326 325 324 328 330 331 332 331 331 331 331 331 331 332 331 330 330 330 330 330 329 328 327 327 327 327 326 324 324 324 325 325 324 324 323 323 323 322 322 320 319 318 317 316
316 317 318 316 316 316 315 314 314 314 315 315 315 316 317 317 317 316 317 317 317 317 317 317 316 316 316 316 316 316 316 316 316 315 315 316 315 316 318 318 317 316 314 315 315 317 317 316 316 316 320 325 326 325 324 321 323 327 329 330 330 330 330 330 330 330 331 331 331 331 330 330 330 329 328 328 328 327 327 327 325 324 324 325 325 324 323 322 322 323 322 322 321 319 318 316 315
317 318 317 317 317 316 314 314 315 314 315 314 315 317 317 316 315 316 317 317 317 317 316 316 316 316 316 316 315 316 316 316 316 316 316 316 315 316 316 317 317 316 314 314 314 315 316 315 315 315 319 323 322 323 324 322 320 319 324 327 329 329 330 330 330 329 329 329 330 331 331 330 330 330 329 329 329 328 327 328 327 324 324 325 325 324 324 322 322 322 322 321 321 319 318 316 314
318 318 318 318 317 316 315 316 315 315 315 315 316 318 318 315 315 317 318 318 317 317 316 316 316 316 316 316 316 316 316 316 316 316 316 316 315 316 315 315 316 316 315 314 314 314 314 314 315 314 316 317 319 322 324 324 322 317 317 321 324 328 330 330 330 329 330 331 330 330 330 330 330 330 330 329 329 328 328 328 328 326 324 325 326 325 325 324 322 322 321 321 321 319 318 316 313
317 318 317 317 317 317 316 317 316 316 316 315 316 318 317 316 315 317 318 318 317 316 317 316 316 316 316 316 316 316 316 316 316 316 316 316 316 316 316 316 316 315 315 315 315 314 314 314 314 314 314 314 317 321 324 324 325 324 320 316 318 325 328 328 329 328 328 330 330 329 330 330 330 330 330 329 329 329 328 328 328 327 325 325 326 325 325 324 323 322 321 321 320 319 319 317 312
317 317 318 317 317 318 317 318 317 316 317 315 316 317 317 317 316 318 318 317 317 317 317 317 317 317 316 316 316 316 316 316 316 316 316 316 316 316 316 316 315 316 315 315 315 314 315 314 314 314 313 314 314 317 322 324 324 326 325 321 322 327 328 327 327 328 328 327 328 329 329 329 330 330 330 329 329 329 328 328 328 328 327 325 326 326 325 324 323 322 320 320 320 319 319 318 312
317 317 318 318 317 317 318 318 316 316 317 315 316 315 317 319 319 319 318 317 317 317 317 318 317 318 317 317 316 316 316 316 316 316 316 316 316 316 316 316 315 315 315 315 315 315 315 314 314 314 313 314 313 314 319 322 321 322 323 324 326 330 332 329 325 326 327 327 329 329 328 329 329 329 329 329 329 328 329 328 327 328 327 326 326 326 325 324 323 322 321 320 319 320 320 318 314
318 317 317 318 317 317 318 318 317 317 316 315 316 315 317 320 320 319 318 317 317 317 318 318 318 318 318 317 316 316 316 316 317 316 316 316 316 316 315 315 315 315 315 315 315 314 314 314 313 313 313 313 313 313 314 316 316 316 320 323 325 326 329 327 323 325 325 326 330 327 325 328 329 328 328 328 328 328 329 328 328 328 328 328 327 326 325 324 323 322 321 320 320 321 321 319 316
318 316 316 318 317 317 318 317 317 317 316 316 317 316 318 320 320 318 318 317 316 317 319 319 319 318 318 318 317 317 317 317 317 317 316 316 316 316 316 315 315 315 315 315 315 315 314 314 313 313 313 313 313 313 313 314 314 314 317 319 321 321 322 320 320 325 324 323 327 323 322 327 327 327 329 328 328 329 329 329 328 328 328 328 327 326 326 325 324 323 322 321 320 321 322 320 317
318 316 316 319 317 317 318 316 316 316 316 316 316 317 319 320 319 317 317 317 316 317 319 319 319 319 319 318 317 317 317 317 317 317 317 317 317 316 316 316 315 315 315 315 315 315 314 314 314 313 313 313 312 313 313 313 313 314 314 315 316 316 316 314 314 320 321 318 320 322 326 329 327 327 329 327 328 329 328 328 328 328 328 328 328 326 325 326 325 324 322 321 320 321 322 320 318
318 317 317 319 318 317 317 316 316 316 316 317 317 317 318 319 319 318 317 317 317 318 319 319 319 319 319 319 319 318 318 318 317 318 318 317 317 317 317 316 316 316 315 315 314 314 315 314 314 314 313 313 313 313 313 313 314 313 314 313 313 313 313 313 311 314 317 315 318 327 331 331 329 327 326 326 328 330 329 328 327 328 328 328 328 326 325 326 325 324 323 321 321 321 322 321 318
318 318 317 318 318 316 316 317 316 315 316 317 317 317 318 318 319 319 318 318 317 318 318 319 319 319 319 319 319 319 319 319 318 318 318 318 318 318 318 317 317 316 315 315 315 314 315 314 314 314 313 313 313 313 312 313 313 313 313 312 312 312 311 312 311 313 315 313 320 330 333 330 328 325 323 325 328 328 328 329 327 326 328 328 328 327 326 326 325 324 323 322 322 321 321 321 318
318 319 318 316 317 316 317 317 315 315 316 316 317 317 317 318 318 319 319 319 318 319 319 318 319 318 319 318 319 319 319 319 319 319 318 318 319 318 318 318 318 317 316 316 315 315 315 314 314 314 314 314 313 313 313 312 313 312 313 312 311 312 311 312 311 312 313 312 318 328 330 327 324 324 324 326 326 324 324 328 328 325 326 328 329 328 327 326 325 324 323 321 321 321 321 321 318
317 318 317 316 316 316 317 317 314 315 316 316 317 317 318 318 318 318 319 319 319 319 319 319 319 319 319 319 318 318 318 317 318 318 318 319 319 319 319 319 319 318 318 317 316 316 315 315 315 315 314 314 313 314 313 313 313 312 312 312 312 312 312 312 312 312 312 312 316 321 323 323 322 322 325 326 324 322 324 328 328 326 326 327 328 329 327 326 324 323 322 320 321 321 321 321 318
317 316 316 316 317 317 318 317 314 314 315 316 317 317 318 318 318 318 319 318 319 319 319 319 319 319 319 319 319 319 318 318 317 316 317 318 318 318 319 318 319 319 319 318 317 316 316 315 315 315 314 314 314 314 314 314 313 313 312 312 312 312 312 312 312 312 311 312 314 317 320 324 323 321 323 325 324 324 326 328 327 326 326 326 327 328 327 326 324 322 321 320 321 321 321 321 319
317 317 317 317 318 318 317 316 315 315 315 316 317 317 317 317 317 318 319 318 319 319 319 319 319 319 319 319 320 320 320 320 319 317 317 317 317 317 318 318 318 318 318 318 318 317 317 316 315 315 315 314 314 314 314 314 313 313 312 312 312 312 312 312 313 312 311 312 313 316 322 326 324 323 324 325 324 326 328 326 324 324 324 325 326 327 326 325 324 322 321 320 321 321 320 320 318
318 317 317 317 319 317 315 315 315 315 315 315 316 316 317 318 318 318 319 319 319 320 320 320 320 319 319 319 320 320 320 321 320 319 319 318 317 317 317 317 317 318 318 318 318 318 317 317 316 316 315 315 314 314 314 314 313 313 312 311 311 311 312 312 312 312 312 313 313 316 321 323 325 326 325 325 325 326 326 323 322 321 322 324 325 326 326 325 324 322 322 322 322 321 319 319 318
318 318 317 317 318 317 315 315 316 316 315 315 316 316 316 318 319 319 321 321 320 320 320 320 319 318 318 318 318 318 318 319 318 318 319 318 318 317 317 317 317 317 318 317 318 318 318 318 317 317 316 315 315 314 314 314 313 313 312 312 311 312 312 312 312 312 312 314 314 315 317 320 324 326 325 326 326 325 324 322 321 321 321 323 324 326 326 325 324 322 321 322 322 321 320 319 317
316 319 319 317 317 317 317 317 316 315 315 316 317 315 314 316 319 319 320 320 320 320 320 320 320 319 319 319 319 318 317 317 317 317 318 318 317 317 317 317 318 318 318 318 317 317 317 317 317 317 316 315 315 314 314 314 313 313 313 312 312 312 312 312 313 313 313 314 314 316 317 320 322 324 326 328 327 325 324 323 321 320 321 324 325 326 326 325 324 322 322 322 321 321 320 319 318
314 317 318 316 317 318 317 318 316 315 316 317 316 314 314 315 316 318 319 319 319 320 319 320 320 319 320 321 320 319 318 318 317 317 317 317 317 316 317 317 317 318 318 318 318 317 317 317 317 316 315 315 314 314 314 313 313 313 313 313 312 312 312 312 313 312 313 314 314 315 317 319 322 325 327 328 327 326 325 323 321 320 321 323 324 325 325 324 323 323 322 322 321 321 320 319 319
316 317 316 316 316 318 318 318 317 317 318 317 316 316 315 315 316 317 319 319 319 319 319 319 320 321 320 321 321 319 318 318 317 317 317 317 317 317 317 317 317 318 318 318 318 318 317 316 317 316 315 315 314 314 314 314 313 312 313 313 312 312 311 311 312 312 312 314 316 316 315 318 324 327 327 327 327 325 324 322 320 319 321 322 322 323 324 324 323 323 323 322 320 320 320 319 319
318 316 316 316 317 318 319 319 318 319 319 316 317 319 317 315 317 317 319 318 318 319 319 319 320 321 321 320 320 318 317 318 318 318 318 318 318 317 317 317 317 318 318 318 318 318 318 317 316 316 315 315 315 314 314 314 313 312 312 312 312 311 310 310 311 311 312 313 317 317 316 319 325 327 327 326 326 324 323 321 320 321 322 321 320 320 321 323 323 323 322 320 317 318 319 319 318
316 316 317 318 318 318 319 319 318 319 318 317 319 320 316 315 316 316 318 319 319 319 318 319 320 320 321 319 318 318 318 319 319 320 320 319 319 318 318 318 318 318 318 318 318 318 318 318 317 316 316 315 314 314 314 313 312 312 311 311 311 310 310 310 311 311 311 314 316 316 317 321 324 326 326 325 324 323 323 322 322 322 322 321 320 318 318 320 321 321 321 318 317 318 319 318 317
317 318 319 319 319 319 318 318 318 316 317 317 319 319 316 315 315 315 317 318 319 319 318 319 320 321 320 319 318 319 319 320 319 320 320 319 319 319 319 319 318 319 318 318 318 318 318 318 318 317 317 316 315 315 314 314 313 311 311 311 310 310 309 309 310 311 311 313 315 315 317 320 323 324 323 322 321 322 323 323 322 321 320 319 319 317 317 318 318 320 320 319 318 318 318 317 317
318 319 318 317 317 318 317 318 318 316 315 316 316 317 318 317 316 315 317 319 317 318 318 318 320 321 321 318 318 320 319 319 319 319 320 319 319 319 318 318 318 318 318 318 318 318 318 318 318 318 317 316 315 315 314 314 313 312 311 310 310 310 309 309 309 310 310 312 314 316 317 320 322 321 320 320 321 323 323 322 321 320 319 318 317 317 318 318 318 319 320 320 319 318 318 317 317
318 317 316 314 314 316 316 317 319 316 316 315 314 315 318 317 316 316 317 318 318 318 319 319 319 320 321 319 318 319 319 319 319 319 319 319 318 318 317 318 318 318 319 318 318 318 318 318 317 317 317 316 315 315 315 315 313 312 311 310 310 309 309 308 309 309 310 311 314 315 317 319 320 319 320 321 323 323 322 321 320 319 318 317 317 317 318 317 318 318 320 320 319 318 318 317 317
316 316 316 314 312 314 315 316 316 315 315 314 313 315 316 315 316 317 318 317 318 318 318 319 319 319 320 320 319 318 319 319 319 319 319 318 318 317 317 318 318 319 318 318 318 318 318 318 318 318 317 316 315 315 315 315 314 313 312 311 310 309 309 309 309 309 309 311 313 314 315 317 319 319 320 322 322 322 321 320 320 319 318 317 316 318 318 317 317 319 320 320 319 319 318 317 317
316 317 316 315 313 313 314 314 314 315 315 313 313 315 315 315 315 317 318 318 318 318 318 318 318 318 318 319 319 318 318 318 318 318 318 317 317 317 318 319 319 319 318 318 318 318 318 318 317 318 317 317 316 315 315 315 314 313 312 311 310 310 309 309 309 309 309 311 312 312 313 317 319 321 322 321 320 319 320 320 320 319 317 316 315 317 317 317 318 319 320 319 319 319 318 317 316
317 318 319 317 316 314 313 314 314 314 314 314 314 315 315 316 316 316 317 317 317 317 317 316 316 317 317 317 317 317 317 317 317 317 317 317 317 318 319 319 319 319 318 318 318 318 318 317 317 317 317 316 316 315 315 314 314 313 312 312 311 310 310 309 310 308 308 310 310 310 314 317 320 322 321 319 318 319 320 320 318 317 315 314 315 316 317 318 319 318 318 318 318 318 317 316 315
317 318 319 318 317 315 314 313 313 312 313 314 315 315 315 315 316 317 316 316 317 317 317 317 317 317 317 317 317 317 317 317 316 317 317 317 318 318 319 319 318 318 318 318 317 317 317 317 317 317 316 316 316 315 315 314 314 313 312 312 312 311 310 310 310 309 308 309 308 311 316 319 320 320 318 317 318 319 319 318 316 314 313 314 315 316 317 319 319 318 317 317 316 316 316 315 313
318 318 317 316 316 316 314 314 314 314 314 314 313 314 313 313 314 317 317 316 316 316 316 318 317 317 317 317 316 317 317 317 316 317 317 318 318 319 319 319 318 318 318 318 318 318 317 317 317 316 316 316 316 315 315 315 314 313 312 312 312 311 310 310 310 309 308 308 307 310 316 320 319 316 314 316 318 319 318 317 315 313 313 314 316 316 317 318 318 317 316 316 316 315 315 314 312
316 316 316 316 316 315 314 314 314 315 316 316 314 313 313 313 314 315 316 316 316 316 316 317 317 318 318 317 317 317 317 317 316 317 318 318 319 319 319 318 318 319 319 319 318 318 318 318 317 317 317 317 316 316 315 315 314 313 313 312 311 311 311 310 310 309 308 308 307 309 315 318 315 313 314 317 318 318 317 316 315 314 313 314 315 316 317 317 317 316 315 315 315 314 313 311 311
314 314 315 316 316 315 315 315 314 313 315 316 316 315 314 315 315 315 315 316 316 316 316 316 316 318 319 319 319 318 317 317 317 317 318 318 319 319 319 319 319 319 318 318 318 318 318 318 318 318 318 317 317 317 316 316 315 314 313 312 311 311 311 311 310 309 308 307 306 307 311 313 311 312 316 318 316 315 316 316 316 315 313 313 314 315 317 317 316 316 315 314 314 313 312 311 310
313 313 315 315 315 315 315 316 315 313 314 314 315 315 313 315 316 316 316 316 316 316 317 318 318 319 320 319 318 317 317 318 317 318 318 318 318 319 319 319 318 318 318 317 317 317 318 318 318 318 318 318 318 317 317 316 315 314 313 312 312 311 311 311 310 309 308 307 306 306 308 310 311 313 315 314 313 314 315 315 315 314 313 313 313 315 316 316 316 315 314 314 313 311 310 310 310
315 314 314 315 316 315 315 316 316 315 315 315 315 315 315 315 316 316 315 316 316 318 319 319 319 320 320 318 317 317 318 318 318 318 318 317 318 319 318 318 318 317 317 317 317 317 318 318 318 318 318 318 318 317 317 316 315 315 313 312 311 311 311 311 310 309 308 307 306 307 308 310 313 314 312 311 313 314 314 313 313 314 314 313 313 315 315 315 315 314 314 313 310 306 304 306 307
Wind_Speed
1 2 4 2 1 2 5 4 4 2 2 0 3 2 4 5 3 4 5 3 2 4 3 2 1 2 1 4 6 5 7 8 6 3 2 9 16 14 14 14 14 15 14 14 13 12 11 12 12 12 12 10 9 10 11 10 9 9 8 8 8 8 8 8 7 7 9 11 12 12 11 11 11 12 11 11 12 12 12 12 12 12 13 14 15 16 18 17 14 11 11 12 13 14 15 16 16
1 2 3 2 2 3 3 4 3 1 2 2 3 1 6 5 3 4 5 4 4 5 3 2 1 1 1 5 4 2 5 9 7 8 9 16 17 11 15 15 14 14 13 13 13 13 11 11 12 11 12 10 9 10 11 10 9 8 8 8 7 7 8 8 7 7 9 11 12 12 11 12 12 12 12 12 12 12 12 12 12 13 14 15 16 17 18 17 13 12 12 13 15 16 17 17 18
1 2 1 1 2 5 3 4 4 1 1 2 4 4 5 5 4 4 6 6 7 6 4 3 2 3 4 4 2 2 4 7 8 13 14 15 13 12 16 15 14 13 13 12 12 13 12 12 11 11 11 9 8 9 9 9 8 7 7 7 6 7 9 8 7 8 9 11 12 12 12 12 12 13 12 12 12 12 12 12 12 13 14 15 16 17 16 15 13 13 13 15 16 16 17 18 19
1 2 1 2 5 5 3 3 3 3 1 3 4 5 5 4 5 7 8 8 7 6 4 3 3 3 6 4 4 2 5 8 9 13 15 14 12 15 16 15 15 12 13 13 13 13 12 12 11 11 11 9 8 8 8 8 7 6 6 5 6 8 9 9 8 8 9 11 12 12 12 12 12 12 12 12 11 11 11 11 12 13 15 15 16 16 15 14 14 13 14 15 16 17 18 18 19
1 2 1 3 6 2 2 2 1 3 3 4 2 6 6 4 6 8 9 8 7 5 3 4 2 1 6 4 5 2 6 7 10 12 14 16 14 16 18 17 15 13 13 12 12 12 12 13 12 12 11 10 9 9 8 8 7 6 5 5 6 8 10 9 8 9 10 10 10 11 12 12 13 12 12 12 11 11 10 10 12 13 14 15 15 16 15 15 15 15 16 16 17 18 19 19 19
1 1 1 2 4 1 3 2 1 0 5 5 3 7 6 5 7 9 9 7 5 3 2 3 1 1 4 4 2 1 5 7 11 13 12 16 17 18 20 18 15 14 12 11 12 11 11 13 12 12 11 10 9 9 9 8 8 7 5 5 7 9 10 9 8 9 10 9 9 9 11 12 12 12 11 11 11 11 9 10 12 12 14 14 15 15 15 15 15 16 16 17 18 18 19 19 19
3 1 1 3 2 1 4 1 2 2 5 5 4 5 6 6 8 10 9 6 4 3 3 3 3 3 2 2 3 2 7 10 11 14 13 18 22 21 21 18 15 14 13 12 12 11 12 12 12 12 11 10 10 9 8 8 8 8 7 6 7 8 10 10 9 9 9 8 9 8 9 10 11 11 11 10 11 11 10 10 11 11 13 14 14 15 15 15 15 16 17 17 18 18 18 18 19
4 1 2 3 2 2 3 1 3 3 4 3 3 4 6 8 9 9 8 5 4 4 5 5 4 5 1 3 2 3 9 13 16 18 16 19 24 23 20 16 15 15 13 13 13 12 13 13 12 12 11 10 10 9 8 9 9 8 7 7 7 8 9 9 9 8 8 8 8 8 9 9 10 10 10 10 10 10 10 10 11 11 12 13 14 15 15 15 16 17 17 17 17 17 18 18 18
4 2 3 4 1 1 1 1 2 3 4 3 2 3 5 8 9 7 7 5 3 4 4 5 5 3 3 5 3 5 8 12 17 19 16 19 24 23 18 15 15 15 13 13 13 13 13 13 13 12 12 11 10 8 8 9 9 9 8 7 7 8 9 9 8 7 6 7 8 9 9 9 10 10 10 9 9 10 10 10 11 11 12 13 14 14 15 16 16 17 17 17 17 17 18 18 18
4 3 3 3 2 1 1 1 2 3 4 3 3 4 6 8 8 6 6 4 2 4 4 4 5 3 2 5 5 6 8 11 16 18 17 20 23 21 16 14 14 14 14 14 13 14 14 14 13 13 12 11 10 9 8 9 8 9 8 8 7 8 9 8 8 6 5 6 8 8 9 9 10 10 10 9 9 9 10 10 10 11 13 14 14 15 15 15 16 16 16 16 17 17 18 18 18
5 3 2 3 3 2 0 1 3 3 5 4 4 6 7 8 8 6 5 3 3 3 4 5 5 3 4 3 5 7 10 11 15 18 19 20 21 19 16 14 14 14 14 14 14 13 14 14 14 13 13 12 11 9 9 9 8 9 9 8 8 8 8 8 8 6 5 6 7 8 8 9 9 10 10 9 9 9 10 10 10 12 13 14 14 15 15 15 15 15 16 17 17 18 18 18 18
5 4 3 4 2 1 2 2 2 3 4 5 6 8 7 8 8 6 6 4 4 5 4 7 2 1 5 3 5 7 11 13 15 19 19 20 20 19 16 13 13 13 14 15 14 12 14 15 14 13 13 12 12 11 10 10 9 9 9 9 8 7 7 8 8 6 5 5 6 7 7 7 8 9 9 9 8 9 10 10 11 12 13 14 14 14 15 15 15 15 16 17 17 17 18 17 17
5 3 5 3 1 2 2 2 1 2 3 5 7 10 9 9 8 6 6 4 4 4 4 7 2 2 4 4 5 7 12 14 16 18 19 19 19 20 17 12 14 13 14 16 14 14 14 15 14 13 13 12 12 11 10 10 10 9 9 9 9 8 7 7 7 6 5 5 5 6 6 6 7 8 9 8 8 9 9 10 11 12 13 14 14 15 15 15 15 15 16 17 17 17 17 17 16
4 1 4 2 0 2 2 2 1 2 3 6 8 12 11 8 7 5 5 5 5 3 3 6 4 3 3 4 6 9 13 16 17 17 18 19 18 20 16 13 15 14 15 16 15 14 14 14 14 14 13 13 12 11 11 11 11 10 9 9 9 9 8 7 7 6 6 5 5 5 5 5 5 7 8 8 8 8 9 10 11 12 13 14 14 14 14 14 15 15 16 16 16 16 16 16 16
3 1 4 2 1 2 2 2 1 3 1 9 9 13 12 6 5 4 5 4 2 3 3 5 7 4 1 0 6 10 14 17 17 17 18 19 18 18 16 16 18 17 16 16 15 15 14 14 14 14 14 13 12 12 12 11 11 11 10 10 9 9 8 8 8 7 6 5 4 4 4 4 4 5 6 7 7 8 8 9 10 11 12 12 12 13 13 13 14 15 15 15 15 14 14 14 15
4 2 4 3 3 2 3 2 1 3 2 9 10 12 11 7 6 5 6 5 1 4 6 3 8 6 3 3 7 11 14 15 16 17 17 20 19 16 16 19 20 20 20 18 18 17 16 16 15 15 14 14 13 13 12 12 12 12 12 10 10 9 9 9 8 8 7 5 4 4 4 4 4 4 5 6 6 7 8 8 9 10 10 11 11 11 12 12 13 13 13 13 13 12 13 13 13
6 4 4 4 4 2 3 4 2 1 3 9 10 12 10 7 8 7 7 8 4 4 6 5 8 9 4 2 7 10 14 15 16 17 18 20 19 17 16 18 18 21 24 24 23 21 20 19 17 16 15 14 14 14 13 13 13 13 12 12 11 11 11 10 10 10 8 7 5 4 3 4 4 4 4 5 6 6 7 7 7 8 9 10 10 10 10 11 11 11 11 11 11 10 11 11 12
5 4 5 4 4 2 2 3 1 1 1 8 11 12 10 7 8 9 6 8 8 5 6 8 9 10 10 7 6 8 12 17 17 18 19 19 20 19 17 17 16 20 25 26 26 24 23 22 19 17 16 16 16 15 14 14 13 13 13 13 13 12 12 12 11 11 10 9 7 5 4 4 5 5 4 4 4 5 6 7 7 8 8 9 9 9 9 9 9 9 9 9 9 9 9 10 11
4 3 5 4 2 2 3 1 2 3 3 5 10 11 10 5 8 9 7 8 10 8 8 10 10 10 13 12 9 8 11 17 18 19 20 20 21 21 20 19 18 20 25 26 26 25 24 24 23 19 17 17 17 17 16 15 13 13 14 14 14 14 14 13 13 13 12 10 8 7 5 4 6 6 5 4 4 5 6 7 6 7 7 8 8 8 8 8 8 8 8 8 8 7 8 8 9
3 3 5 2 2 4 5 3 4 5 4 2 8 8 8 4 5 8 7 8 9 9 9 10 11 12 14 15 14 11 10 14 18 20 21 21 22 22 21 21 22 22 23 27 27 26 25 24 24 22 19 19 19 18 17 15 14 14 14 14 14 14 15 15 15 14 13 12 10 9 8 7 8 6 6 6 6 6 7 8 7 7 7 7 7 6 7 7 7 7 6 6 6 6 6 7 8
2 3 3 3 2 1 5 4 5 6 4 1 5 6 8 5 5 7 7 7 7 10 12 11 11 11 14 16 15 14 13 13 17 20 23 23 23 23 23 22 24 22 20 24 28 27 27 25 24 22 20 21 23 22 20 17 15 15 15 15 15 15 15 16 16 15 14 14 12 11 11 11 11 8 7 8 8 7 7 9 9 8 8 7 6 6 6 6 5 5 5 5 4 4 4 5 6
3 2 2 5 2 1 5 3 3 4 4 2 4 5 6 5 6 9 10 9 5 3 7 9 8 6 10 13 12 14 15 14 16 19 22 25 25 25 24 23 24 23 20 23 27 28 28 27 25 22 22 25 25 25 23 20 18 16 16 17 16 15 16 18 17 17 16 15 15 14 13 12 12 11 9 9 10 9 9 10 10 9 8 8 7 6 6 5 5 3 3 2 3 3 2 3 4
3 2 3 4 3 3 4 2 3 3 1 1 3 2 3 5 8 10 13 15 7 4 2 6 7 6 9 11 12 14 15 16 15 16 19 23 26 26 26 25 25 25 24 23 24 26 28 30 28 24 25 26 24 24 25 25 23 19 17 18 18 16 16 18 19 19 18 17 17 15 14 14 13 12 10 11 11 10 11 11 11 11 10 9 8 7 6 6 5 3 2 1 3 3 2 2 3
5 1 5 3 4 3 3 1 3 3 1 2 2 2 4 7 8 5 11 19 14 11 10 8 9 9 10 10 11 13 15 15 15 14 16 20 24 26 26 26 26 26 26 25 23 23 25 28 27 26 25 23 21 23 25 27 27 25 22 20 20 19 18 18 18 19 20 19 19 18 16 15 15 14 12 11 11 11 12 13 13 12 12 11 9 7 6 6 6 4 2 0 2 3 2 1 3
6 2 6 4 4 4 3 2 2 2 2 3 3 6 6 7 6 5 14 18 14 16 18 14 13 12 12 12 11 12 14 15 15 14 15 18 21 25 27 27 27 27 28 27 25 23 25 26 25 26 26 21 19 21 23 25 26 28 28 25 22 22 21 20 20 20 21 21 20 20 19 17 16 16 14 13 12 12 12 14 15 15 14 13 10 8 7 7 5 4 2 1 2 2 3 0 4
2 4 7 5 5 4 4 3 3 2 2 2 4 7 5 4 6 11 19 18 14 17 20 19 18 18 17 17 17 16 15 16 15 15 15 17 19 23 27 28 28 29 28 27 27 26 26 26 24 25 27 25 22 21 22 23 24 27 29 28 27 24 22 21 22 21 21 22 22 22 21 19 17 16 16 15 15 14 14 15 16 16 16 14 12 10 9 7 5 3 2 3 3 3 3 1 3
5 7 7 6 6 4 3 3 3 2 1 3 5 6 4 3 4 8 10 12 16 18 19 20 21 21 21 21 21 20 20 19 18 17 17 19 21 22 24 27 28 29 28 26 26 27 26 25 25 25 26 27 24 21 21 20 20 24 27 28 28 26 24 23 22 22 21 20 21 22 22 22 21 19 17 17 17 17 17 17 17 18 18 16 14 13 12 10 7 4 3 4 4 4 4 1 2
6 8 7 6 5 5 4 3 4 3 2 3 5 7 6 3 5 12 8 7 11 11 12 15 18 20 20 19 20 22 22 22 21 21 22 22 22 22 23 24 26 28 28 26 25 27 27 25 25 25 25 25 24 21 19 19 18 19 22 26 26 25 25 26 24 23 22 21 21 22 22 23 24 22 20 18 18 18 18 18 18 19 19 18 17 16 15 12 9 6 5 5 6 6 4 2 2
6 6 4 6 5 5 7 5 4 4 2 2 2 7 10 9 14 19 14 11 11 8 9 9 12 15 16 17 19 22 22 23 24 25 25 24 24 23 23 23 23 26 27 26 27 27 26 25 25 25 25 24 24 24 20 20 20 17 17 20 24 27 27 27 26 24 23 23 23 23 22 22 24 23 22 20 20 20 20 19 18 19 20 19 18 18 16 13 11 8 6 6 7 6 6 3 2
6 4 3 4 5 6 8 6 3 4 2 3 2 6 7 10 17 17 14 15 14 11 12 11 12 13 13 16 20 22 21 22 24 25 25 24 25 25 24 24 24 25 26 27 28 27 26 25 25 25 26 25 25 26 24 22 22 22 19 17 21 28 31 30 28 25 25 25 24 25 25 24 24 23 24 23 22 23 23 22 20 19 21 22 20 20 17 15 14 11 8 7 8 7 7 5 3
5 3 3 3 4 3 7 5 5 5 4 5 4 5 7 6 7 11 13 15 12 11 13 12 13 13 13 15 20 24 24 24 24 23 24 24 25 26 25 25 26 26 26 26 27 27 27 25 24 25 26 25 25 26 26 27 26 25 23 18 18 25 31 32 28 26 28 28 25 25 26 26 25 24 25 23 23 25 25 23 23 21 22 25 22 20 18 17 16 14 11 8 9 9 9 7 4
4 4 4 4 4 3 6 4 4 3 3 7 6 5 9 7 4 8 10 12 11 11 11 11 11 12 13 14 17 21 22 23 24 23 23 23 24 25 25 25 26 27 27 26 26 27 28 26 25 25 25 25 25 25 26 28 28 27 26 23 20 21 27 31 28 25 28 30 29 27 26 26 26 25 26 25 23 26 26 24 24 23 24 26 24 20 19 19 18 17 14 11 10 10 12 11 7
4 5 4 5 6 4 4 4 3 1 2 7 10 6 7 4 5 6 5 7 9 9 9 10 11 11 13 13 15 18 19 21 24 25 24 23 23 23 24 24 26 27 27 27 27 27 28 28 27 26 25 25 26 26 26 28 29 29 29 28 27 27 28 31 30 27 28 30 30 30 29 29 28 25 27 27 26 27 27 25 24 24 25 27 27 23 21 21 20 19 17 15 13 12 14 15 11
5 5 4 3 5 5 3 4 4 2 3 6 10 9 11 10 7 6 6 7 9 10 13 15 15 14 14 14 15 18 19 20 24 26 24 22 21 19 19 21 23 25 27 27 27 28 28 29 29 27 26 26 26 27 28 28 29 29 30 29 30 32 32 31 31 30 30 30 30 31 32 33 29 26 28 28 28 28 27 27 25 25 26 28 29 27 24 23 22 22 19 16 15 15 15 16 15
6 6 5 4 5 6 5 2 3 3 5 7 9 10 13 16 17 16 14 12 13 14 18 19 18 18 18 17 18 18 21 24 25 25 24 22 20 18 18 19 21 22 25 26 27 28 28 30 31 29 27 27 27 28 29 29 29 29 30 30 32 33 32 31 31 31 32 32 31 31 32 32 28 26 29 30 29 28 28 29 28 27 27 29 31 29 27 26 24 24 22 19 18 18 17 17 17
2 3 4 5 4 5 4 3 3 1 4 8 11 12 14 15 16 18 18 15 15 17 18 18 18 19 20 21 22 21 23 28 28 26 26 25 23 23 24 23 23 22 23 25 27 29 29 31 32 31 30 29 28 29 30 30 30 31 31 32 33 32 30 30 32 32 33 33 33 33 33 32 28 27 31 32 30 29 29 30 29 28 29 31 34 33 30 30 27 25 24 22 20 21 20 19 18
1 1 2 4 4 3 2 5 4 1 4 8 10 12 15 16 15 17 20 19 18 19 19 19 19 20 21 23 25 27 29 32 31 30 31 31 30 31 31 29 27 25 25 25 27 29 30 32 33 32 31 31 31 30 31 32 32 32 33 33 33 32 30 31 33 32 34 34 33 34 35 33 31 30 33 33 33 31 29 31 30 29 30 32 38 38 33 32 29 26 25 23 22 23 23 22 21
2 3 3 4 5 4 2 5 3 2 2 7 9 12 14 15 16 18 20 19 19 20 20 21 22 22 22 23 25 27 28 29 30 33 33 34 35 34 34 32 30 29 28 28 27 28 30 32 33 33 33 33 33 32 32 32 32 32 32 32 33 32 31 33 32 32 33 34 34 35 35 35 33 33 34 34 33 31 30 32 30 30 30 32 38 39 34 32 30 27 26 25 24 25 25 24 25
4 3 4 4 3 2 2 4 2 2 3 5 6 10 14 15 16 18 20 20 20 21 22 22 21 22 23 23 23 22 21 21 26 31 32 34 35 34 35 33 32 31 30 30 30 29 30 32 33 34 35 35 35 35 34 32 32 32 32 32 33 32 33 33 32 32 33 33 33 34 35 35 35 34 34 34 33 31 31 31 28 29 31 31 35 38 36 34 29 27 28 27 26 27 27 26 26
5 4 4 3 1 1 2 2 2 3 4 5 7 9 13 14 14 17 20 22 21 18 18 20 19 22 25 25 22 20 19 20 23 25 24 28 31 30 31 30 29 30 31 32 32 31 32 32 33 34 34 35 35 36 35 33 32 32 33 33 34 35 34 33 31 32 32 30 30 33 36 36 36 36 35 35 35 33 30 28 28 29 31 31 32 35 37 36 31 28 29 29 28 28 29 29 26
6 6 6 5 2 2 2 2 1 5 4 3 6 8 9 10 10 10 10 12 13 13 14 15 18 23 26 25 24 23 24 24 26 25 21 24 27 26 24 22 22 24 27 30 32 33 33 33 33 34 34 35 36 37 36 34 34 34 35 36 37 37 36 33 32 33 32 29 30 33 36 37 38 37 35 35 36 35 31 29 30 30 31 33 34 34 36 37 33 29 28 30 30 28 29 30 29
5 7 7 9 7 3 2 3 3 5 3 1 3 5 6 7 9 9 6 6 9 11 12 14 18 21 21 21 23 25 25 25 26 26 23 23 26 27 25 22 20 20 21 24 27 31 33 33 34 34 35 36 37 37 37 36 36 36 36 37 38 39 37 36 36 35 33 32 31 32 34 35 37 37 36 35 36 35 32 31 31 31 31 33 37 37 36 37 34 31 30 31 30 28 28 32 32
4 2 2 6 7 4 3 3 2 4 2 1 1 4 6 8 12 12 7 7 9 9 11 15 18 18 16 16 18 20 20 20 21 22 22 22 24 25 25 23 22 20 19 19 22 26 30 33 34 34 35 37 38 38 39 38 38 38 38 38 38 37 37 37 36 35 34 32 31 31 33 35 36 37 37 37 35 34 33 32 32 33 32 30 34 36 36 36 33 31 33 32 30 28 30 35 33
2 1 1 0 2 3 3 3 4 3 4 2 3 3 5 8 13 11 3 5 11 10 11 14 17 16 14 13 13 14 15 15 15 16 16 16 18 19 20 19 19 19 20 21 21 23 25 29 32 33 34 36 38 39 39 40 39 39 38 38 37 36 36 36 36 35 34 33 31 30 33 34 36 38 38 37 36 34 33 33 34 34 32 29 29 31 34 35 32 32 33 31 30 31 35 38 34
1 1 1 3 3 2 2 2 3 1 3 5 5 5 5 6 11 12 6 7 12 11 11 12 12 11 9 8 9 10 11 10 8 7 8 10 12 13 14 14 15 16 19 20 21 22 23 26 28 30 32 34 36 38 39 40 39 39 39 39 37 36 36 35 36 37 35 34 33 31 32 35 38 39 38 38 37 35 34 34 34 34 32 31 30 31 33 34 33 32 32 32 33 35 39 38 32
3 4 4 6 4 3 2 2 3 1 4 7 6 9 6 6 8 10 8 7 9 9 8 5 3 3 4 6 7 8 8 7 5 4 4 5 6 6 7 7 8 10 12 14 16 19 21 24 27 29 31 33 35 36 38 39 38 38 39 39 36 35 35 35 37 38 36 35 34 32 33 37 39 40 40 39 38 36 36 36 35 34 32 33 34 35 35 35 35 33 33 34 33 36 40 37 31
7 6 5 4 3 2 1 2 1 3 6 4 5 10 7 7 5 8 7 4 3 4 3 3 5 5 6 6 7 7 7 8 7 6 5 5 4 4 3 4 6 8 10 12 14 16 19 22 25 28 30 32 33 35 36 36 36 37 37 37 35 34 35 36 38 39 37 35 35 34 34 36 39 40 40 39 38 38 38 36 34 32 31 32 34 36 37 36 36 36 36 35 32 35 38 35 32
4 3 3 2 2 2 3 3 3 5 6 0 1 2 6 8 5 5 4 2 1 3 3 3 4 6 7 6 7 8 11 10 9 8 7 7 6 4 6 9 12 13 14 14 16 17 19 20 22 25 27 30 32 33 34 35 34 35 35 35 35 34 34 37 39 39 38 36 36 35 35 37 39 40 39 38 39 39 38 35 33 31 30 30 33 36 37 37 36 37 38 37 35 36 37 37 36
3 4 5 3 4 4 4 5 4 6 3 2 0 2 5 10 7 6 6 5 6 7 5 4 3 3 4 5 6 10 13 12 11 11 10 9 8 9 12 14 15 16 16 16 18 19 20 20 21 22 24 26 29 31 32 33 33 33 33 34 34 34 35 38 39 38 38 37 36 36 36 38 39 39 39 38 40 40 37 35 33 32 30 30 33 36 37 36 36 37 39 39 38 37 39 41 37
7 7 7 6 5 5 7 6 4 4 1 1 1 1 5 10 6 10 14 12 13 13 11 10 11 12 10 7 9 12 14 14 13 13 11 12 13 15 15 15 15 16 16 17 18 19 19 19 20 21 22 23 26 28 30 30 30 31 32 33 33 34 35 38 38 37 37 36 36 36 35 36 37 37 37 37 38 38 37 36 34 33 32 31 34 37 36 36 37 39 40 40 38 38 41 41 34
10 7 7 7 6 6 7 5 4 4 0 2 2 2 6 5 1 3 5 5 9 12 13 15 16 16 13 12 15 17 19 20 18 17 17 18 19 16 14 14 15 15 15 16 16 17 17 17 18 18 19 21 23 25 27 28 28 29 31 32 33 35 35 37 37 36 37 36 36 35 34 35 36 36 36 35 35 36 36 35 34 34 33 32 35 36 36 37 39 41 42 42 41 41 42 39 33
7 4 6 7 5 6 5 1 1 2 2 2 5 4 6 5 4 5 4 3 6 9 11 14 16 14 12 13 18 21 25 27 24 23 24 24 19 14 13 13 13 13 13 13 13 14 14 14 14 15 16 17 19 22 23 25 27 28 29 31 33 34 35 36 36 36 37 38 37 35 34 34 35 38 37 34 33 34 34 33 32 30 31 33 35 36 36 37 38 39 40 41 42 42 40 37 33
5 5 7 3 1 3 5 1 3 1 5 6 5 7 9 7 9 11 13 13 12 12 11 11 15 18 16 17 19 20 22 21 20 21 19 17 15 13 13 12 11 10 9 9 8 8 9 10 11 12 13 14 17 19 21 23 25 26 28 29 30 32 34 36 36 35 36 37 36 34 34 35 37 38 37 33 33 35 34 31 28 27 29 33 36 37 37 36 35 35 36 37 37 38 38 36 34
3 5 5 2 3 2 4 4 2 3 8 6 6 11 11 7 7 4 8 11 10 9 8 8 11 15 18 23 28 28 25 22 22 19 13 13 13 12 12 11 9 7 6 5 4 4 5 6 7 8 9 11 14 17 19 21 22 24 25 27 28 30 32 35 35 33 34 35 35 34 36 38 39 38 36 34 35 34 32 29 27 27 29 32 35 37 38 37 36 35 35 35 34 35 36 36 35
1 2 1 1 2 4 5 6 6 7 8 6 9 14 11 9 10 4 3 5 5 5 5 6 8 11 15 20 25 28 28 25 22 17 13 13 13 13 13 11 10 8 6 4 3 3 4 5 5 7 8 10 12 15 17 19 21 22 24 25 27 28 30 32 32 32 33 33 34 35 37 40 39 36 35 34 33 31 30 30 30 28 28 31 34 36 38 39 37 35 34 33 34 34 35 36 36
1 3 2 1 2 4 5 6 6 7 8 7 9 11 9 9 11 11 9 9 8 8 7 7 9 9 8 9 13 19 20 17 16 16 17 15 14 16 15 13 11 9 6 5 4 5 5 6 6 7 9 10 13 15 17 18 20 21 22 24 26 27 29 31 29 30 32 32 33 35 37 38 36 34 34 33 31 31 31 31 32 30 29 31 33 35 38 40 38 37 36 34 34 35 37 37 37
5 5 6 5 3 1 2 4 6 6 7 7 8 9 9 7 6 8 9 7 6 6 4 4 7 8 4 4 8 12 13 13 14 19 22 19 17 19 18 15 12 10 8 6 7 7 7 8 8 9 10 12 14 15 17 19 20 21 22 23 25 27 28 28 26 28 30 31 32 34 35 35 33 33 34 33 32 32 31 30 30 31 29 31 34 35 37 39 38 37 36 35 35 36 38 40 38
9 9 10 10 9 5 4 7 6 4 5 5 6 7 10 8 2 2 5 3 3 3 3 4 7 7 7 8 9 9 12 14 14 17 23 24 23 22 20 17 14 12 9 8 9 10 10 10 10 11 12 13 15 16 18 19 20 21 22 23 24 26 26 25 24 27 29 31 32 33 33 33 33 33 32 32 32 32 30 27 29 32 31 31 34 35 35 37 38 38 37 35 36 37 39 39 38
Wind_Direction
195 8 4 303 236 223 213 245 251 191 261 85 98 145 114 75 83 138 140 129 133 125 74 49 56 59 87 357 1 16 21 11 9 18 57 130 139 150 159 157 159 159 159 158 156 152 145 139 140 145 149 149 148 155 154 146 142 135 121 103 89 77 79 84 75 66 61 55 62 75 84 84 82 80 84 92 100 107 110 112 110 107 101 97 95 95 103 105 100 103 108 109 107 103 100 98 97
81 10 349 274 224 242 224 235 263 157 215 130 110 83 101 117 166 156 130 109 68 96 114 107 175 212 331 341 321 306 46 42 46 79 109 137 134 146 161 154 157 161 160 158 156 157 152 147 147 146 146 147 150 158 163 159 151 140 124 109 90 75 87 92 83 74 65 63 70 80 85 85 82 79 81 87 95 102 105 108 108 105 100 97 96 96 101 105 105 108 110 107 104 101 99 96 94
87 349 291 237 238 251 245 225 273 300 226 106 112 95 118 157 157 104 75 75 73 98 122 111 190 206 248 273 294 314 75 71 86 107 122 142 144 155 161 155 156 162 165 160 158 162 159 154 152 147 144 144 142 148 160 160 153 145 129 117 90 80 95 97 90 80 69 69 75 82 86 87 85 81 81 84 91 97 103 106 107 102 99 100 100 104 110 114 114 114 111 105 102 99 95 92 90
230 295 220 233 250 239 240 235 304 305 312 69 108 116 146 162 119 86 73 80 91 111 117 143 178 202 244 286 348 346 106 101 107 118 133 152 170 165 160 159 157 163 170 169 167 165 161 156 153 150 145 141 140 140 151 156 153 148 132 113 82 87 102 101 95 82 71 73 79 84 86 88 87 85 83 85 89 94 100 105 106 100 99 104 104 108 118 120 118 115 108 101 98 96 94 92 90
234 293 165 241 267 262 288 278 300 293 13 28 82 123 149 139 112 97 95 97 102 117 118 174 167 180 234 277 327 350 104 123 133 130 143 163 182 170 161 160 159 165 171 174 171 165 161 157 154 153 148 145 144 139 141 148 150 145 133 108 83 95 105 103 98 83 73 75 80 84 86 87 87 88 88 88 89 93 98 104 106 100 100 104 103 102 108 116 115 109 103 98 97 95 94 92 91
138 353 121 242 273 311 270 251 211 50 38 2 45 117 139 120 122 115 111 109 111 115 121 193 258 258 215 227 265 38 123 145 143 135 147 171 174 166 161 160 162 165 168 173 170 167 165 159 157 154 152 150 146 142 137 137 141 138 131 110 93 101 106 107 103 88 77 74 76 80 85 86 86 87 89 93 93 95 98 102 106 103 102 104 105 102 104 110 110 106 103 99 96 94 93 93 92
134 144 183 216 205 235 263 287 2 57 51 7 35 110 134 122 128 130 133 134 142 170 189 201 284 257 202 167 185 208 175 148 150 157 166 179 170 162 162 161 162 166 169 173 172 174 170 162 161 157 153 151 148 148 137 133 134 133 127 107 100 103 107 112 109 99 85 75 72 74 82 85 86 86 87 93 97 99 97 100 105 104 106 108 106 105 105 106 107 107 104 99 95 94 93 93 92
144 168 241 248 191 210 278 360 29 39 56 38 43 66 111 133 143 146 158 159 157 166 190 202 244 254 155 129 160 184 185 166 174 180 176 178 169 163 161 162 165 169 172 174 179 179 173 169 167 160 155 152 152 152 138 137 134 128 123 109 104 104 108 115 115 108 92 78 76 74 78 83 84 84 85 91 97 100 99 100 104 102 105 109 108 108 109 107 107 106 104 101 99 97 94 91 90
165 232 243 255 254 193 269 35 71 74 90 108 107 70 103 142 157 162 171 166 157 163 174 185 211 261 125 137 118 130 189 190 181 181 175 169 170 168 161 165 169 172 175 179 186 181 177 176 171 164 159 157 157 157 145 142 137 128 123 115 110 109 115 120 122 116 99 84 81 79 79 82 82 82 82 87 95 100 100 100 103 102 99 102 104 106 108 110 109 107 106 104 100 96 93 90 87
200 232 265 262 267 222 216 150 98 100 112 121 131 135 145 151 165 178 179 171 151 167 150 162 201 257 175 141 124 152 196 192 177 177 175 170 173 173 164 166 173 178 179 183 189 184 182 180 177 170 163 163 163 163 155 147 141 132 131 128 119 118 124 128 130 121 106 94 87 85 84 83 81 81 81 85 94 99 100 100 102 102 99 102 104 105 106 108 109 108 106 102 98 94 91 88 85
215 205 284 268 236 244 280 87 99 109 121 141 146 149 164 161 173 183 193 193 154 180 151 176 211 219 216 150 128 189 202 182 175 178 179 177 175 176 169 167 177 183 186 189 190 186 186 184 185 178 168 170 170 170 162 153 150 145 144 140 129 126 131 135 132 122 110 101 98 93 89 86 80 80 81 85 95 100 103 103 104 103 105 107 108 108 108 107 106 105 103 100 96 93 90 88 85
231 185 216 254 253 312 18 12 84 112 136 167 165 156 169 170 181 187 198 208 173 203 181 190 221 158 210 162 139 199 198 183 180 183 184 183 180 178 173 173 182 186 193 194 190 191 192 189 189 185 178 177 175 176 171 162 160 157 155 150 142 138 143 142 136 129 118 107 106 101 98 92 83 82 83 86 96 103 107 108 109 109 110 111 111 111 109 108 106 104 101 98 94 91 88 86 85
249 196 218 252 331 345 2 333 74 123 191 179 161 156 169 177 191 198 194 203 195 207 178 185 212 264 234 120 141 186 188 191 191 189 187 185 186 183 175 179 186 187 198 196 192 197 198 193 191 191 189 185 182 181 180 173 168 166 165 162 155 154 158 153 147 141 126 121 119 110 107 99 88 85 84 87 94 103 108 110 111 112 113 112 112 111 110 108 106 102 98 96 92 89 85 82 81
244 230 247 261 59 291 300 301 87 244 216 136 136 152 169 185 198 208 199 205 196 181 155 190 214 249 237 153 158 169 183 198 198 194 190 187 187 185 179 184 190 188 198 198 196 200 200 199 196 197 196 192 190 190 190 183 177 176 174 174 170 167 168 164 162 158 146 145 136 118 115 109 96 89 86 88 95 103 106 108 110 111 112 112 112 111 110 108 105 101 98 94 90 85 81 77 75
213 246 255 266 241 234 216 262 332 272 169 123 140 155 170 190 195 207 222 227 143 165 205 218 224 231 307 196 135 152 191 203 199 197 195 192 187 183 183 192 195 190 194 198 201 202 202 201 200 202 199 196 197 199 200 193 187 185 180 183 185 179 177 179 176 173 172 168 149 129 129 128 117 103 96 95 101 109 109 109 111 113 115 114 114 113 111 110 107 104 99 93 88 81 76 72 70
188 216 240 249 245 224 186 201 214 261 127 123 145 157 174 188 192 208 222 242 19 197 220 225 220 220 354 23 130 163 202 205 199 199 197 198 191 182 187 196 198 194 193 197 202 203 202 202 203 206 201 199 203 205 205 202 200 195 189 187 194 195 190 193 189 186 190 186 174 161 151 145 143 129 117 109 112 120 119 116 116 119 120 119 118 116 115 114 112 108 102 95 88 81 74 70 69
178 209 237 234 226 220 175 190 182 250 92 122 150 166 181 180 187 215 217 229 250 217 208 216 222 220 257 261 172 195 204 199 203 202 199 200 194 188 191 194 197 197 196 197 202 202 202 202 200 205 204 203 207 208 209 210 208 204 201 195 198 205 202 202 200 197 199 198 193 187 181 170 167 154 139 130 127 131 132 126 125 128 127 127 124 121 121 120 119 114 107 99 90 82 74 70 68
181 215 228 231 228 214 154 207 183 9 66 144 162 179 195 179 174 201 215 221 224 226 213 221 235 226 235 234 205 216 203 199 205 205 204 201 197 197 196 196 198 201 201 203 205 203 205 205 199 201 205 207 210 211 212 213 211 208 211 207 204 208 208 208 209 205 200 201 201 194 202 202 191 176 166 162 148 143 144 140 138 139 137 135 131 126 126 126 127 122 112 103 92 84 74 70 69
212 243 225 238 236 77 60 349 68 38 356 149 165 186 205 187 163 185 210 214 205 221 217 212 230 225 227 224 209 212 204 205 208 208 209 208 205 204 203 203 204 206 207 208 210 208 209 209 204 200 204 209 212 213 216 216 212 210 214 215 212 212 212 211 211 211 206 202 201 195 201 213 211 189 175 182 173 161 153 152 153 149 146 143 140 135 131 132 132 128 119 104 94 85 74 69 70
232 253 230 244 71 76 68 45 69 61 16 173 172 182 206 193 153 178 214 225 205 224 223 202 215 217 220 222 215 212 207 210 213 213 213 214 214 211 210 209 210 211 210 211 213 213 212 212 209 204 204 210 211 211 213 216 216 213 215 218 218 217 217 217 214 213 211 205 201 201 205 211 220 203 177 190 192 182 170 163 167 164 158 154 152 148 141 141 141 136 124 105 93 84 75 74 75
193 226 255 26 40 76 84 81 83 72 41 177 159 167 206 200 172 192 220 236 216 230 229 213 221 216 211 220 223 223 222 219 218 218 217 219 219 217 217 215 217 215 211 214 215 215 214 214 213 208 206 211 212 209 208 212 218 218 217 219 222 223 221 221 218 215 213 209 206 207 212 215 227 223 188 196 204 195 187 177 178 180 177 171 165 165 156 148 147 139 121 104 87 69 71 85 89
193 196 12 38 354 5 83 87 129 104 57 124 160 176 199 184 204 218 224 235 232 255 225 208 229 210 199 221 231 230 232 232 228 224 222 222 222 222 220 219 222 217 216 218 216 218 217 216 217 212 210 215 217 214 210 208 212 216 217 220 223 225 227 225 223 221 217 212 211 212 217 219 231 235 206 199 209 204 196 189 188 191 191 187 179 176 170 160 158 150 128 98 50 42 73 99 104
228 160 88 63 21 41 80 82 177 169 59 183 185 190 191 201 228 225 226 235 248 323 258 195 220 209 209 235 238 231 233 234 236 234 229 226 225 225 222 222 225 222 222 224 219 219 219 219 219 217 217 219 221 221 218 212 209 209 212 220 223 224 229 229 227 226 222 217 216 216 220 221 227 236 220 204 211 210 204 199 195 195 197 197 191 187 183 176 171 169 164 82 28 46 92 115 124
253 185 115 91 50 59 72 75 192 185 231 253 243 254 238 233 240 219 229 238 244 268 261 227 226 222 223 238 239 235 236 236 239 241 237 232 229 226 224 224 227 226 226 228 226 222 221 222 221 222 223 221 220 223 226 222 216 214 216 219 222 224 226 229 230 229 226 222 220 219 220 223 225 234 232 212 205 206 209 209 202 199 201 202 198 193 187 181 178 178 182 41 32 47 52 132 157
246 184 118 111 81 81 77 94 158 160 238 264 242 247 245 242 261 263 248 245 239 248 253 247 243 241 239 241 244 240 237 238 238 238 236 234 231 226 224 225 227 229 229 231 232 227 226 227 225 226 226 223 222 224 230 231 227 225 224 222 220 224 227 230 234 233 232 228 224 223 221 224 226 231 234 222 210 203 208 217 210 204 204 203 202 199 191 186 186 189 207 291 348 12 5 131 175
197 129 121 125 111 98 99 114 118 139 231 238 229 237 236 245 269 266 255 248 235 237 245 251 250 250 250 249 250 247 243 241 235 236 235 233 232 228 227 227 228 232 235 233 233 231 231 233 230 228 227 227 226 225 229 233 233 231 229 226 221 221 223 226 231 234 237 235 231 228 223 224 228 230 232 230 228 217 213 220 216 210 208 204 204 209 211 207 203 198 232 283 290 317 344 44 181
117 125 120 119 122 121 129 136 134 169 191 197 245 252 230 227 253 257 249 234 231 236 244 252 253 251 252 253 252 252 250 247 243 240 237 233 232 231 231 230 229 234 238 236 233 233 235 235 232 230 229 228 226 222 222 226 233 234 232 230 224 219 217 220 228 232 233 233 234 233 226 224 229 233 235 233 234 228 221 222 219 214 211 206 205 214 222 224 224 221 237 265 270 289 321 357 171
130 134 125 124 135 146 167 168 159 197 178 187 269 282 252 191 222 244 240 227 229 232 238 246 253 250 248 249 249 251 250 249 247 243 240 239 237 236 234 232 232 234 237 238 236 235 235 235 234 233 233 232 229 226 224 224 229 235 235 233 226 222 220 217 222 228 226 227 233 237 231 225 228 235 239 235 231 229 225 224 223 220 215 206 204 214 222 223 227 225 220 241 255 270 297 320 153
139 158 164 148 170 186 178 168 161 214 195 146 292 283 252 210 224 239 232 235 237 231 238 240 251 252 245 243 245 249 251 247 246 245 245 245 245 243 239 237 235 235 237 238 238 238 237 236 235 235 235 235 234 233 233 231 230 230 233 233 225 226 230 225 220 222 224 225 229 232 230 227 229 235 239 236 232 230 226 225 227 227 220 211 206 212 217 221 228 225 215 234 245 254 282 289 158
153 182 242 163 200 207 169 157 158 214 188 135 235 273 256 218 222 226 217 230 239 241 249 247 248 250 244 245 250 253 254 249 246 248 249 247 248 248 244 241 239 238 238 237 237 239 239 239 238 237 236 236 236 235 233 234 233 230 229 230 225 225 231 233 227 222 220 221 224 227 228 229 230 233 237 236 232 230 227 225 229 230 222 215 209 208 213 222 229 224 214 230 237 240 266 267 173
163 165 244 210 226 179 143 150 166 203 180 156 215 257 270 262 198 186 206 227 233 240 249 251 250 248 242 246 255 257 257 255 252 251 251 248 248 250 249 245 242 242 240 238 237 238 240 240 239 239 238 237 237 235 234 236 237 235 231 229 228 225 229 234 233 228 224 220 221 227 228 229 230 231 233 232 231 231 229 227 228 230 225 220 214 210 215 224 226 220 213 223 233 239 255 253 201
176 176 210 207 230 147 124 141 169 206 167 169 207 249 263 270 131 153 215 227 225 240 248 252 254 250 246 245 254 258 257 259 259 255 251 248 247 248 249 246 244 244 242 240 238 236 238 238 238 238 239 238 238 236 234 237 238 237 235 232 234 232 233 237 236 233 232 226 223 227 228 228 231 232 229 229 230 231 231 230 228 229 230 226 220 216 219 226 227 218 211 216 230 242 247 245 226
192 220 221 183 212 201 143 136 153 177 138 186 215 253 275 256 133 147 221 222 215 235 247 253 260 257 253 249 254 260 259 259 260 258 253 250 247 246 247 247 246 245 244 243 240 237 236 237 238 238 239 239 238 238 234 234 236 236 237 238 240 241 242 245 241 235 234 229 222 225 228 227 231 232 229 231 232 231 231 232 230 231 233 228 223 220 219 226 228 217 211 213 223 241 242 239 234
185 215 234 193 213 230 193 135 128 171 209 220 221 239 264 267 261 235 221 213 215 236 253 262 268 264 261 256 255 260 260 260 260 260 256 250 246 245 246 248 248 247 245 244 242 239 237 238 239 238 239 240 239 240 237 235 234 233 235 237 241 244 245 247 245 236 232 227 221 226 230 227 227 230 232 236 234 230 232 234 232 233 234 228 224 222 219 223 223 212 213 218 221 237 240 234 233
204 201 217 218 213 239 249 154 126 185 214 240 238 241 254 263 270 266 252 230 221 243 260 265 268 265 264 260 257 257 260 262 260 259 257 249 242 244 250 256 255 251 247 243 242 241 238 238 239 238 238 239 240 240 240 238 236 235 236 236 239 242 243 244 244 237 231 226 221 223 228 226 227 231 233 235 233 231 234 235 234 235 236 231 226 223 220 221 217 208 214 225 226 230 233 232 231
249 197 221 239 224 231 230 105 83 239 237 246 248 253 259 262 267 269 266 253 239 250 260 261 262 262 261 260 259 256 258 262 259 257 257 251 247 250 257 263 261 254 250 245 241 240 239 239 240 240 238 238 239 239 239 239 238 238 238 239 240 241 242 241 240 237 233 229 222 219 224 229 232 232 230 232 237 239 237 233 235 239 238 233 230 227 225 223 216 210 216 225 228 225 224 228 229
5 352 260 247 251 243 151 98 89 77 270 258 252 259 265 268 271 271 271 267 259 257 256 255 255 254 254 256 258 258 260 263 261 258 257 256 255 256 259 262 260 254 251 248 242 240 240 240 241 242 241 240 240 241 242 241 240 240 240 242 243 242 242 241 240 238 235 233 227 220 224 229 229 228 228 231 238 240 234 229 233 239 238 238 235 230 228 224 215 211 216 221 226 228 225 224 225
277 272 268 247 247 250 107 94 118 126 269 267 271 274 269 268 271 271 269 266 259 254 251 250 250 251 252 253 254 256 260 261 262 262 260 258 258 258 259 259 257 254 251 250 247 244 241 240 241 242 242 242 242 244 246 246 244 243 243 244 246 245 243 243 243 239 236 234 230 223 223 225 225 226 227 230 235 236 231 226 230 235 237 241 236 227 224 221 215 215 218 218 220 227 231 228 223
255 248 259 257 245 238 122 99 117 156 248 276 300 293 279 272 268 265 261 256 254 251 248 250 252 253 252 251 251 253 254 252 258 264 263 262 261 259 260 258 256 254 252 250 249 246 244 242 242 242 243 243 243 246 248 249 248 246 246 246 246 246 243 244 245 241 238 235 229 224 222 223 225 226 226 228 233 235 228 225 231 235 237 241 235 226 223 218 217 222 223 224 222 222 226 226 224
238 238 252 248 150 253 230 102 112 196 240 290 308 297 283 275 264 256 250 249 254 254 250 251 250 251 252 252 252 251 250 248 254 260 261 263 265 263 262 261 257 254 251 249 247 246 245 244 244 244 244 245 244 246 249 250 249 248 246 245 245 245 244 245 244 240 239 235 226 223 222 223 223 225 227 227 229 232 230 232 241 242 238 239 235 230 227 219 220 228 227 227 226 223 221 220 221
227 226 240 248 263 291 281 25 325 240 227 273 293 284 277 275 265 256 239 232 247 249 245 246 245 251 256 255 255 255 256 256 258 259 256 259 268 271 269 265 258 252 249 247 245 244 245 245 246 245 245 246 245 247 248 249 248 247 245 243 243 244 244 242 239 238 236 230 224 223 222 221 220 224 228 227 226 229 234 238 244 246 241 238 236 234 230 225 229 235 231 227 228 231 229 222 217
224 214 233 255 275 303 306 356 332 273 235 183 299 284 274 288 282 274 257 221 234 238 236 244 249 254 256 254 257 262 265 267 267 266 262 259 266 271 270 265 257 251 249 247 244 242 242 243 244 245 244 245 246 247 248 248 247 246 246 244 243 244 244 241 239 240 237 231 227 225 222 219 219 223 226 225 224 227 231 236 241 244 242 238 234 231 227 229 234 236 231 229 233 239 235 226 221
237 204 270 263 267 277 273 295 291 284 295 150 318 299 289 301 288 277 272 253 252 249 250 254 255 254 248 243 252 262 268 271 271 272 267 261 262 265 266 262 255 249 246 245 242 239 238 239 241 243 244 245 246 246 247 248 247 246 247 247 246 246 246 246 245 243 240 236 231 226 222 220 219 222 224 224 225 227 230 237 243 242 241 239 233 230 229 231 235 234 230 231 236 237 232 226 225
227 105 357 188 208 227 236 262 251 288 330 263 204 241 274 286 283 280 269 261 267 258 253 254 252 252 244 236 245 255 260 264 266 269 267 261 260 260 260 256 247 240 238 238 238 237 236 237 239 241 243 245 246 247 248 248 247 247 248 249 248 246 245 246 245 242 240 237 230 225 223 220 217 219 223 224 227 229 232 240 245 241 239 242 240 238 236 232 231 230 230 234 236 235 231 226 225
81 82 65 96 100 133 163 238 253 293 327 272 192 181 248 253 268 283 272 258 272 266 259 258 254 251 239 228 233 242 248 251 252 253 255 255 254 253 251 246 240 236 237 239 239 240 239 239 240 242 244 245 246 247 248 249 249 248 249 250 249 247 243 241 241 240 240 237 231 226 221 217 216 219 224 227 229 232 234 239 241 237 238 244 247 249 244 235 231 232 236 239 236 232 229 223 224
129 139 104 94 104 107 127 242 276 265 264 264 189 176 243 264 250 267 264 253 269 270 264 259 232 211 194 201 217 230 231 217 201 198 214 227 229 232 231 230 235 239 243 247 246 245 244 243 243 243 244 245 246 247 248 249 250 249 249 250 250 248 245 240 238 239 240 237 232 228 223 218 218 222 226 230 232 234 234 235 234 234 238 245 251 254 250 242 238 241 243 242 239 233 225 220 228
141 148 121 115 137 124 204 226 283 268 255 264 179 182 234 277 236 231 246 258 276 271 248 142 127 144 166 186 205 214 199 181 182 185 179 178 174 176 202 239 256 261 261 259 254 251 249 248 247 246 246 246 247 248 249 250 250 250 251 251 251 249 247 242 239 240 241 236 231 229 226 222 221 224 229 232 234 234 232 231 232 235 240 245 250 251 248 245 243 242 238 236 236 230 222 222 234
152 166 164 182 198 174 223 203 175 248 247 308 53 202 249 257 224 210 251 329 275 236 213 168 129 131 150 176 201 202 193 187 187 188 187 188 192 217 263 273 269 267 265 260 257 254 252 253 253 252 251 250 250 250 251 250 250 250 250 251 250 248 245 242 240 242 244 238 231 228 226 224 225 228 231 234 233 231 230 232 235 238 241 245 248 245 242 243 242 237 233 230 225 220 222 227 234
197 196 182 215 231 200 225 212 191 237 234 130 30 353 262 252 241 234 258 276 251 237 226 239 258 218 190 191 207 207 203 202 198 200 207 211 227 267 278 272 264 260 257 254 254 253 254 255 256 258 257 255 254 254 254 254 252 250 250 250 250 248 244 242 243 243 243 240 232 228 227 226 227 229 229 230 229 229 234 240 242 242 245 251 249 242 239 241 237 233 230 225 217 217 225 229 232
195 194 186 207 220 221 234 220 214 245 222 113 187 145 256 267 262 232 235 239 244 254 260 264 268 265 260 236 224 224 217 213 210 211 218 232 259 280 275 263 257 255 253 253 255 255 256 258 260 262 262 260 259 259 260 260 257 253 251 249 250 249 245 244 245 245 243 240 234 232 233 231 230 230 228 228 231 237 243 245 246 248 252 256 250 238 235 239 237 234 228 219 216 221 226 228 233
199 202 201 216 224 238 246 235 246 257 174 152 190 198 239 260 5 208 220 233 252 267 271 269 268 263 261 249 242 242 238 235 235 237 245 261 274 275 261 256 256 254 254 255 258 260 261 264 265 267 267 265 264 264 265 264 261 258 254 251 249 248 248 247 248 247 244 240 235 234 236 234 232 230 230 234 240 244 246 244 246 250 252 256 249 236 233 239 238 234 226 218 218 221 224 229 234
196 200 216 231 236 244 258 306 298 311 337 212 195 237 247 252 303 271 239 235 242 248 252 260 269 268 267 265 256 253 251 251 255 261 263 267 270 261 250 253 253 252 255 258 263 267 269 272 273 273 273 271 270 269 269 267 265 262 258 254 250 249 249 249 248 246 243 240 236 235 235 234 231 231 235 240 243 244 244 244 247 251 255 254 244 233 233 236 232 227 223 221 222 223 227 232 231
175 184 209 220 7 264 248 227 93 73 278 254 215 253 267 277 282 253 231 235 235 231 230 239 261 268 271 275 272 266 259 259 273 283 272 255 250 247 243 243 242 245 250 256 265 271 276 281 282 282 281 277 277 274 272 270 268 265 262 257 252 250 250 251 250 247 244 242 239 234 232 232 232 235 239 239 242 244 242 241 246 253 256 250 236 229 232 230 222 220 222 224 228 230 232 232 227
157 194 201 109 46 313 252 245 226 214 249 256 232 250 267 277 276 219 192 223 235 236 227 215 236 249 254 260 263 266 268 271 280 281 256 235 240 237 228 222 218 220 219 226 253 271 287 298 298 298 294 287 284 280 277 275 272 269 265 261 257 254 250 250 251 250 246 244 241 234 229 231 235 239 238 236 240 243 238 239 247 250 250 245 233 229 232 227 219 222 226 228 233 235 231 228 224
56 306 267 108 222 223 208 222 238 235 241 256 248 251 258 253 257 265 180 209 233 253 255 241 234 230 235 248 257 265 274 276 274 262 234 232 239 223 209 203 196 193 193 204 243 273 289 301 301 301 299 293 289 286 284 281 276 272 269 264 261 257 253 252 252 249 247 244 241 235 230 233 237 237 235 236 238 239 238 243 245 242 242 243 237 232 230 227 225 230 231 229 232 232 227 224 223
28 316 261 214 257 233 213 210 222 237 240 252 258 255 252 243 253 268 264 257 265 277 282 277 275 258 231 235 261 274 280 275 264 252 240 237 229 209 199 195 190 191 200 216 242 261 268 273 279 285 286 285 284 285 286 284 280 277 274 269 265 261 258 258 254 249 246 244 242 237 232 233 234 232 232 234 236 237 240 243 239 235 237 241 242 238 230 226 230 233 232 230 232 229 225 224 224
181 223 213 198 208 245 280 241 221 235 242 243 255 259 257 255 261 269 270 275 280 294 308 295 300 300 273 254 269 279 288 278 257 248 246 240 222 205 197 194 195 202 212 224 240 247 250 255 266 273 274 277 280 281 283 283 281 278 276 273 269 266 265 264 257 250 247 245 241 237 233 231 229 230 232 234 236 238 237 237 236 235 236 239 243 242 232 227 230 233 231 231 233 231 227 225 225
189 202 203 204 202 189 231 238 217 221 244 250 260 268 269 264 269 301 289 314 359 14 16 312 300 301 292 286 279 284 290 276 260 254 250 237 216 202 196 197 202 208 215 226 237 242 247 254 259 262 265 271 275 279 282 282 282 280 277 275 271 269 269 266 257 250 246 244 241 237 232 227 226 229 232 232 234 234 233 237 242 239 235 238 241 241 238 233 233 236 236 234 232 230 228 226 224